QPF
0.00 0.00 0.00 0.00 0.00 0.00 0.00 0.00 0.00 0.00 0.00 0.00 0.00 0.00 0.00 0.00 0.00 0.00 0.00 0.00 0.00 0.00 0.00 0.00 0.00 0.00 0.00 0.00 0.00 0.00 0.00 0.00 0.00 0.00 0.00 0.00 0.00 0.00 0.00 0.00 0.00 0.00 0.00 0.00
0.00 0.00 0.00 0.00 0.00 0.00 0.00 0.00 0.00 0.00 0.00 0.00 0.00 0.00 0.00 0.00 0.00 0.00 0.00 0.00 0.00 0.00 0.00 0.00 0.00 0.00 0.00 0.00 0.00 0.00 0.00 0.00 0.00 0.00 0.00 0.00 0.00 0.00 0.00 0.00 0.00 0.00 0.00 0.00
0.00 0.00 0.00 0.00 0.00 0.00 0.00 0.00 0.00 0.00 0.00 0.00 0.00 0.00 0.00 0.00 0.00 0.00 0.00 0.00 0.00 0.00 0.00 0.00 0.00 0.00 0.00 0.00 0.00 0.00 0.00 0.00 0.00 0.00 0.00 0.00 0.00 0.00 0.00 0.00 0.00 0.00 0.00 0.00
0.00 0.00 0.00 0.00 0.00 0.00 0.00 0.00 0.00 0.00 0.00 0.00 0.00 0.00 0.00 0.00 0.00 0.00 0.00 0.00 0.00 0.00 0.00 0.00 0.00 0.00 0.00 0.00 0.00 0.00 0.00 0.00 0.00 0.00 0.00 0.00 0.00 0.00 0.00 0.00 0.00 0.00 0.00 0.00
0.00 0.00 0.00 0.00 0.00 0.00 0.00 0.00 0.00 0.00 0.00 0.00 0.00 0.00 0.00 0.00 0.00 0.00 0.00 0.00 0.00 0.00 0.00 0.00 0.00 0.00 0.00 0.00 0.00 0.00 0.00 0.00 0.00 0.00 0.00 0.00 0.00 0.00 0.00 0.00 0.00 0.00 0.00 0.00
0.00 0.00 0.00 0.00 0.00 0.00 0.00 0.00 0.00 0.00 0.00 0.00 0.00 0.00 0.00 0.00 0.00 0.00 0.00 0.00 0.00 0.00 0.00 0.00 0.00 0.00 0.00 0.00 0.00 0.00 0.00 0.00 0.00 0.00 0.00 0.00 0.00 0.00 0.00 0.00 0.00 0.00 0.00 0.00
0.00 0.00 0.00 0.00 0.00 0.00 0.00 0.00 0.00 0.00 0.00 0.00 0.00 0.00 0.00 0.00 0.00 0.00 0.00 0.00 0.00 0.00 0.00 0.00 0.00 0.00 0.00 0.00 0.00 0.00 0.00 0.00 0.00 0.00 0.00 0.00 0.00 0.00 0.00 0.00 0.00 0.00 0.00 0.00
0.00 0.00 0.00 0.00 0.00 0.00 0.00 0.00 0.00 0.00 0.00 0.00 0.00 0.00 0.00 0.00 0.00 0.00 0.00 0.00 0.00 0.00 0.00 0.00 0.00 0.00 0.00 0.00 0.00 0.00 0.00 0.00 0.00 0.00 0.00 0.00 0.00 0.00 0.00 0.00 0.00 0.00 0.00 0.00
0.00 0.00 0.00 0.00 0.00 0.00 0.00 0.00 0.00 0.00 0.00 0.00 0.00 0.00 0.00 0.00 0.00 0.00 0.00 0.00 0.00 0.00 0.00 0.00 0.00 0.00 0.00 0.00 0.00 0.00 0.00 0.00 0.00 0.00 0.00 0.00 0.00 0.00 0.00 0.00 0.00 0.00 0.00 0.00
0.00 0.00 0.00 0.00 0.00 0.00 0.00 0.00 0.00 0.00 0.00 0.00 0.00 0.00 0.00 0.00 0.00 0.00 0.00 0.00 0.00 0.00 0.00 0.00 0.00 0.00 0.00 0.00 0.00 0.00 0.00 0.00 0.00 0.00 0.00 0.00 0.00 0.00 0.00 0.00 0.00 0.00 0.00 0.00
0.00 0.00 0.00 0.00 0.00 0.00 0.00 0.00 0.00 0.00 0.00 0.00 0.00 0.00 0.00 0.00 0.00 0.00 0.00 0.00 0.00 0.00 0.00 0.00 0.00 0.00 0.00 0.00 0.00 0.00 0.00 0.00 0.00 0.00 0.00 0.00 0.00 0.00 0.00 0.00 0.00 0.00 0.00 0.00
0.00 0.00 0.00 0.00 0.00 0.00 0.00 0.00 0.00 0.00 0.00 0.00 0.00 0.00 0.00 0.00 0.00 0.00 0.00 0.00 0.00 0.00 0.00 0.00 0.00 0.00 0.00 0.00 0.00 0.00 0.00 0.00 0.00 0.00 0.00 0.00 0.00 0.00 0.00 0.00 0.00 0.00 0.00 0.00
0.00 0.00 0.00 0.00 0.00 0.00 0.00 0.00 0.00 0.00 0.00 0.00 0.00 0.00 0.00 0.00 0.00 0.00 0.00 0.00 0.00 0.00 0.00 0.00 0.00 0.00 0.00 0.00 0.00 0.00 0.00 0.00 0.00 0.00 0.00 0.00 0.00 0.00 0.00 0.00 0.00 0.00 0.00 0.00
0.00 0.00 0.00 0.00 0.00 0.00 0.00 0.00 0.00 0.00 0.00 0.00 0.00 0.00 0.00 0.00 0.00 0.00 0.00 0.00 0.00 0.00 0.00 0.00 0.00 0.00 0.00 0.00 0.00 0.00 0.00 0.00 0.00 0.00 0.00 0.00 0.00 0.00 0.00 0.00 0.00 0.00 0.00 0.00
0.01 0.01 0.00 0.00 0.00 0.00 0.00 0.00 0.00 0.00 0.00 0.00 0.00 0.00 0.00 0.00 0.00 0.00 0.00 0.00 0.00 0.00 0.00 0.00 0.00 0.00 0.00 0.00 0.00 0.00 0.00 0.00 0.00 0.00 0.00 0.00 0.00 0.00 0.00 0.00 0.00 0.00 0.00 0.00
0.00 0.01 0.00 0.00 0.00 0.00 0.00 0.00 0.00 0.00 0.00 0.00 0.00 0.00 0.00 0.00 0.00 0.00 0.00 0.00 0.00 0.00 0.00 0.00 0.00 0.00 0.00 0.00 0.00 0.00 0.00 0.00 0.00 0.00 0.00 0.00 0.00 0.00 0.00 0.00 0.00 0.00 0.00 0.00
0.00 0.00 0.01 0.00 0.00 0.00 0.00 0.00 0.00 0.00 0.00 0.00 0.00 0.00 0.00 0.00 0.00 0.00 0.00 0.00 0.00 0.00 0.00 0.00 0.00 0.00 0.00 0.00 0.00 0.00 0.00 0.00 0.00 0.00 0.00 0.00 0.00 0.00 0.00 0.00 0.00 0.00 0.00 0.00
0.00 0.00 0.00 0.00 0.00 0.00 0.00 0.00 0.00 0.00 0.00 0.00 0.00 0.00 0.00 0.00 0.00 0.00 0.00 0.00 0.00 0.00 0.00 0.00 0.00 0.00 0.00 0.00 0.00 0.00 0.00 0.00 0.00 0.00 0.00 0.00 0.00 0.00 0.00 0.00 0.00 0.00 0.00 0.00
0.00 0.00 0.01 0.01 0.01 0.01 0.00 0.00 0.00 0.00 0.00 0.00 0.00 0.00 0.00 0.00 0.00 0.00 0.00 0.00 0.00 0.00 0.00 0.00 0.00 0.00 0.00 0.00 0.00 0.00 0.00 0.00 0.00 0.00 0.00 0.00 0.00 0.00 0.00 0.00 0.00 0.00 0.00 0.00
0.00 0.00 0.02 0.03 0.04 0.02 0.00 0.00 0.00 0.01 0.01 0.00 0.00 0.00 0.00 0.00 0.00 0.00 0.00 0.00 0.00 0.00 0.00 0.00 0.00 0.00 0.00 0.00 0.00 0.00 0.00 0.00 0.00 0.00 0.00 0.00 0.00 0.00 0.00 0.00 0.00 0.00 0.00 0.00
0.03 0.03 0.03 0.02 0.04 0.03 0.02 0.00 0.01 0.02 0.01 0.00 0.00 0.00 0.00 0.00 0.00 0.00 0.00 0.00 0.00 0.00 0.00 0.00 0.00 0.00 0.00 0.00 0.00 0.00 0.00 0.00 0.00 0.00 0.00 0.00 0.00 0.00 0.00 0.00 0.00 0.00 0.00 0.00
0.01 0.02 0.02 0.02 0.02 0.02 0.00 0.00 0.01 0.00 0.00 0.00 0.00 0.00 0.00 0.00 0.00 0.00 0.00 0.00 0.00 0.00 0.00 0.00 0.00 0.00 0.00 0.00 0.00 0.00 0.00 0.00 0.00 0.00 0.00 0.00 0.00 0.00 0.00 0.00 0.00 0.00 0.00 0.00
0.00 0.00 0.00 0.00 0.00 0.00 0.00 0.00 0.00 0.00 0.00 0.00 0.00 0.00 0.00 0.00 0.00 0.00 0.00 0.00 0.00 0.00 0.00 0.00 0.00 0.00 0.00 0.00 0.00 0.00 0.00 0.00 0.00 0.00 0.00 0.00 0.00 0.00 0.00 0.00 0.00 0.00 0.00 0.00
0.00 0.00 0.00 0.00 0.00 0.00 0.00 0.00 0.00 0.00 0.00 0.00 0.00 0.00 0.00 0.00 0.00 0.00 0.00 0.00 0.00 0.00 0.00 0.00 0.00 0.00 0.00 0.00 0.00 0.00 0.00 0.00 0.00 0.00 0.00 0.00 0.00 0.00 0.00 0.00 0.00 0.00 0.00 0.00
0.00 0.00 0.00 0.00 0.00 0.00 0.00 0.00 0.00 0.00 0.00 0.00 0.00 0.00 0.00 0.00 0.00 0.00 0.00 0.00 0.00 0.00 0.00 0.00 0.00 0.00 0.00 0.00 0.00 0.00 0.00 0.00 0.00 0.00 0.00 0.00 0.00 0.00 0.00 0.00 0.00 0.00 0.00 0.00
0.00 0.00 0.00 0.00 0.00 0.00 0.00 0.00 0.00 0.00 0.00 0.00 0.00 0.00 0.00 0.00 0.00 0.00 0.00 0.00 0.00 0.00 0.00 0.00 0.00 0.00 0.00 0.00 0.00 0.00 0.00 0.00 0.00 0.00 0.00 0.00 0.00 0.00 0.00 0.00 0.00 0.00 0.00 0.00
MSLP
1013.62 1014.04 1013.72 1012.32 1013.08 1012.79 1013.02 1012.85 1012.54 1011.08 1010.79 1011.11 1010.48 1009.87 1008.73 1008.21 1008.37 1008.21 1007.61 1007.02 1006.14 1005.57 1004.97 1005.43 1005.87 1006.51 1007.57 1008.79 1009.87 1010.91 1012.08 1013.17 1014.11 1015.27 1016.43 1017.51 1017.97 1018.40 1018.76 1018.88 1019.08 1019.46 1019.95 1020.34
1013.73 1012.96 1011.92 1012.21 1012.59 1012.83 1012.77 1012.42 1011.77 1010.55 1010.00 1010.47 1009.88 1008.91 1008.21 1007.96 1007.04 1006.60 1006.43 1005.77 1004.72 1004.93 1004.85 1004.86 1005.35 1006.28 1006.98 1008.02 1009.29 1010.51 1011.54 1012.58 1013.47 1014.39 1015.29 1016.22 1017.06 1018.01 1018.37 1018.71 1019.07 1019.33 1019.74 1020.00
1012.11 1011.32 1011.78 1012.18 1012.27 1012.70 1011.68 1011.95 1011.06 1010.63 1010.36 1009.77 1009.38 1008.04 1007.60 1006.62 1005.96 1005.41 1004.79 1003.98 1003.71 1004.08 1004.44 1004.75 1005.43 1005.78 1006.62 1007.66 1008.56 1009.57 1010.67 1011.70 1012.59 1013.54 1014.86 1016.03 1017.19 1017.93 1018.44 1018.47 1018.69 1018.83 1019.17 1019.62
1012.05 1011.05 1011.44 1011.80 1011.85 1011.79 1010.24 1010.70 1010.71 1011.01 1011.37 1010.58 1009.80 1006.32 1006.19 1005.81 1005.35 1004.58 1003.78 1002.61 1002.67 1003.17 1003.59 1003.91 1004.88 1005.73 1005.95 1006.82 1008.03 1008.98 1009.94 1010.89 1011.98 1013.01 1014.04 1014.76 1015.17 1016.05 1016.08 1016.52 1017.59 1018.43 1019.03 1019.41
1010.50 1010.53 1010.67 1011.09 1010.33 1011.08 1009.55 1010.21 1010.78 1011.20 1011.53 1011.11 1009.91 1009.61 1004.97 1004.65 1004.52 1003.64 1002.69 1001.80 1001.50 1001.97 1002.53 1003.40 1004.15 1004.54 1005.54 1006.53 1007.39 1008.45 1009.55 1010.52 1011.41 1012.26 1012.95 1013.90 1014.68 1015.27 1015.75 1016.74 1017.45 1018.14 1018.83 1019.18
1011.03 1010.69 1010.47 1010.21 1010.47 1010.55 1010.76 1011.06 1011.22 1011.64 1012.14 1010.60 1010.22 1009.13 1002.47 1003.84 1002.98 1002.32 1001.51 1001.02 1000.76 1001.13 1002.11 1002.99 1003.84 1004.73 1006.05 1006.78 1007.46 1008.30 1009.16 1009.86 1010.42 1011.38 1012.24 1012.98 1013.71 1014.53 1015.39 1016.20 1016.99 1017.50 1018.10 1018.58
1011.03 1010.02 1009.78 1009.85 1010.85 1011.41 1011.42 1011.81 1012.54 1012.59 1012.73 1009.25 1007.85 1007.27 1002.62 1002.65 1001.83 1001.04 1000.61 1000.11 999.81 1000.55 1001.99 1002.83 1003.90 1005.05 1005.80 1006.51 1007.09 1007.80 1008.55 1009.33 1010.10 1010.68 1011.29 1011.75 1012.64 1013.54 1014.09 1014.55 1015.52 1016.58 1017.34 1017.87
1011.72 1009.54 1009.54 1008.99 1009.09 1009.08 1010.45 1011.36 1011.99 1011.53 1010.82 1008.51 1007.53 1004.36 1001.81 1000.94 1000.15 999.62 999.14 998.88 999.45 1000.62 1001.68 1002.46 1003.24 1004.36 1005.25 1006.09 1006.74 1007.29 1008.09 1008.84 1009.36 1009.94 1010.56 1011.21 1011.86 1012.52 1013.18 1013.69 1014.20 1015.04 1015.74 1016.42
1010.50 1008.61 1008.25 1008.24 1008.52 1008.33 1009.50 1010.55 1009.62 1010.44 1009.62 1009.13 1005.05 1002.62 1000.66 1000.15 999.86 999.47 998.89 999.23 999.94 1000.35 1001.28 1002.34 1003.13 1003.82 1004.57 1005.31 1005.76 1006.07 1006.86 1007.52 1008.19 1008.74 1009.84 1010.63 1011.35 1011.66 1012.09 1012.89 1013.70 1014.34 1014.85 1015.76
1008.93 1008.89 1008.12 1008.48 1008.93 1008.79 1008.19 1008.60 1009.71 1009.92 1009.83 1008.00 1004.27 1002.62 1000.57 1000.78 999.82 998.95 998.94 999.16 999.87 1000.58 1001.39 1002.21 1002.85 1003.35 1003.86 1004.45 1005.18 1005.98 1006.42 1006.77 1007.39 1008.01 1008.60 1009.26 1009.96 1010.81 1011.75 1012.61 1013.00 1013.92 1014.91 1015.47
1010.47 1009.17 1007.76 1008.92 1008.68 1008.39 1008.88 1008.49 1008.43 1008.55 1007.87 1006.28 1004.91 1001.52 999.91 1000.25 999.80 999.51 998.99 999.20 999.92 1000.59 1001.24 1001.64 1001.95 1002.43 1003.10 1003.76 1004.59 1005.23 1005.69 1006.30 1006.91 1007.55 1007.93 1008.56 1009.17 1009.85 1010.85 1011.86 1012.68 1013.27 1014.25 1015.20
1011.11 1011.12 1009.83 1008.64 1007.95 1007.19 1007.31 1007.59 1007.97 1007.74 1006.88 1006.03 1004.48 1002.12 1000.74 1000.37 1000.09 1000.30 998.92 999.07 999.24 999.86 1000.49 1000.95 1001.30 1001.87 1002.53 1002.98 1003.62 1003.99 1004.81 1005.39 1005.48 1006.53 1007.56 1008.23 1009.08 1009.82 1010.53 1011.28 1012.43 1013.09 1013.97 1014.98
1010.74 1011.04 1011.04 1009.68 1008.39 1007.76 1006.80 1006.50 1006.76 1006.72 1006.67 1006.25 1005.31 1002.83 999.96 1000.34 1000.20 999.74 999.16 999.68 999.57 999.33 999.75 1000.30 1000.90 1001.09 1001.24 1001.79 1002.49 1002.83 1003.50 1003.93 1004.79 1005.60 1006.65 1007.80 1008.43 1009.24 1009.99 1010.82 1011.84 1012.98 1013.76 1015.03
1010.04 1009.96 1009.82 1009.30 1008.00 1006.98 1007.10 1006.49 1006.08 1005.80 1005.73 1004.37 1003.69 1001.25 1000.48 998.52 997.78 997.30 997.98 997.97 997.75 998.26 998.80 999.13 999.63 999.89 1000.43 1000.71 1001.17 1001.88 1002.22 1002.85 1003.69 1004.51 1005.47 1006.53 1007.42 1008.04 1009.33 1010.10 1011.09 1012.31 1013.19 1014.55
1008.79 1008.55 1008.66 1007.86 1007.62 1007.15 1006.61 1006.03 1004.99 1005.31 1004.19 1003.73 1001.95 1001.33 1000.03 998.01 996.28 996.68 996.70 996.27 996.72 997.38 997.62 997.87 998.53 998.46 999.03 999.44 999.91 1000.42 1000.96 1001.68 1002.63 1003.48 1004.40 1005.26 1006.46 1007.35 1008.74 1009.59 1010.65 1011.93 1012.92 1014.08
1007.64 1006.58 1007.08 1006.17 1005.85 1005.38 1004.91 1004.60 1003.96 1003.21 1002.26 1001.57 1001.11 999.79 997.71 996.80 996.16 996.00 995.22 994.85 996.39 996.86 996.71 996.75 996.80 997.09 997.51 997.82 998.07 998.59 999.55 1000.38 1001.58 1002.34 1003.12 1004.28 1005.67 1006.76 1007.92 1008.77 1009.94 1011.10 1012.34 1013.60
1007.45 1006.41 1005.29 1003.83 1004.06 1003.68 1003.10 1003.07 1001.50 1001.15 1001.27 1000.42 999.71 997.66 997.32 996.50 996.26 995.37 994.88 994.85 995.37 995.14 995.15 995.09 995.31 995.64 996.20 996.63 996.86 997.46 997.99 999.13 1000.57 1001.28 1002.51 1003.55 1004.94 1006.34 1007.14 1008.02 1009.21 1010.15 1011.39 1012.58
1007.04 1006.78 1005.19 1003.40 1003.63 1001.00 1000.32 1000.78 1001.25 1000.25 999.52 999.12 997.68 997.41 996.98 996.34 995.46 995.39 995.48 995.55 994.77 994.26 994.47 994.50 994.61 994.85 994.75 994.98 995.55 996.13 997.22 998.45 999.59 1000.53 1001.79 1002.95 1004.17 1005.38 1006.77 1007.84 1008.76 1009.90 1010.82 1011.84
1005.75 1005.48 1004.57 1003.61 1002.00 1000.83 1000.59 1000.01 999.51 999.09 998.39 999.24 999.11 998.21 997.89 997.26 996.86 996.34 996.67 997.25 996.57 995.62 994.29 993.90 993.83 993.62 993.69 994.06 994.57 995.68 996.95 997.99 999.04 999.70 1000.72 1002.00 1003.11 1004.53 1005.95 1007.15 1008.28 1009.38 1010.54 1011.40
1005.53 1004.80 1004.16 1003.22 1002.02 1000.70 999.96 999.87 999.34 999.52 1000.04 1002.90 1002.87 1001.96 1001.30 999.96 999.24 998.85 999.05 999.19 998.64 997.26 996.50 995.70 995.00 994.17 994.12 994.03 994.94 996.02 996.80 997.44 998.02 998.76 999.76 1001.36 1002.72 1003.72 1004.86 1005.95 1007.64 1008.81 1009.95 1011.48
1006.71 1005.59 1004.24 1002.66 1001.45 1000.95 1002.57 1002.43 1001.37 1001.86 1004.99 1004.63 1004.24 1004.19 1003.86 1003.03 1002.83 1002.16 1001.33 1000.25 999.66 998.26 997.27 996.61 996.20 996.10 995.68 995.87 995.63 996.27 997.00 997.25 997.49 998.51 999.87 1001.51 1002.43 1003.54 1004.71 1005.76 1007.06 1008.20 1008.85 1010.70
1008.65 1007.39 1006.05 1004.61 1003.89 1003.55 1004.29 1004.28 1006.55 1007.36 1005.91 1005.91 1005.47 1005.38 1004.88 1004.93 1004.11 1002.74 1001.44 1000.58 999.84 998.53 997.27 997.08 997.14 996.57 995.95 996.06 996.64 996.96 997.19 997.57 998.27 999.19 1000.23 1001.38 1002.46 1003.55 1004.75 1006.04 1007.31 1008.20 1008.60 1010.08
1010.23 1009.45 1008.97 1008.88 1006.85 1005.60 1005.80 1006.00 1006.30 1006.83 1006.60 1006.50 1006.29 1005.54 1005.50 1004.51 1003.53 1002.82 1002.24 1001.59 1000.29 999.15 997.57 997.39 997.20 996.56 996.51 996.40 996.65 997.15 997.51 997.99 998.85 999.83 1000.64 1001.30 1002.38 1003.46 1004.71 1005.39 1007.02 1007.91 1009.00 1009.20
1010.55 1009.84 1009.13 1008.81 1007.45 1007.11 1005.95 1005.99 1006.04 1006.37 1006.78 1006.94 1006.87 1006.45 1005.86 1005.35 1004.96 1004.25 1002.73 1001.79 1000.74 999.39 998.07 997.43 997.03 996.86 996.40 995.88 996.40 996.75 997.17 998.03 998.74 999.94 1001.19 1001.94 1002.46 1003.39 1004.57 1005.68 1006.73 1006.98 1008.28 1008.48
1010.94 1010.18 1009.10 1008.17 1007.63 1006.99 1006.93 1006.71 1007.22 1007.58 1007.96 1007.97 1007.70 1007.29 1006.97 1006.83 1005.84 1004.91 1003.28 1002.58 1001.95 999.32 998.78 997.60 997.66 996.89 996.35 995.87 994.89 995.86 997.02 997.83 998.12 998.90 999.66 1001.05 1002.72 1003.22 1003.61 1004.25 1004.98 1005.39 1007.19 1007.06
1010.14 1009.44 1009.01 1007.72 1007.64 1007.95 1007.17 1007.43 1007.70 1008.14 1008.59 1008.80 1008.52 1008.11 1007.55 1007.33 1006.17 1005.11 1003.89 1003.56 1001.78 1000.34 999.74 998.36 997.64 996.83 995.48 995.84 994.74 994.72 995.45 997.52 998.42 998.46 999.38 1000.90 1000.79 1001.14 1002.21 1003.72 1004.49 1004.63 1005.84 1006.20
Thickness
5680 5660 5658 5694 5673 5677 5670 5663 5655 5687 5698 5672 5679 5677 5703 5713 5705 5703 5709 5719 5728 5730 5739 5733 5728 5724 5713 5700 5691 5681 5670 5660 5653 5644 5634 5625 5622 5616 5612 5611 5607 5603 5598 5594
5666 5654 5688 5686 5674 5665 5660 5656 5657 5680 5692 5668 5669 5674 5690 5696 5711 5718 5716 5721 5732 5726 5728 5731 5723 5713 5708 5697 5686 5674 5665 5655 5648 5641 5633 5624 5617 5609 5606 5602 5597 5594 5590 5586
5671 5674 5677 5671 5665 5656 5665 5652 5663 5658 5672 5668 5661 5656 5675 5696 5705 5717 5724 5730 5732 5726 5723 5721 5711 5709 5701 5691 5682 5672 5662 5653 5646 5637 5625 5615 5605 5598 5593 5592 5590 5587 5583 5578
5653 5679 5670 5657 5653 5661 5661 5667 5662 5650 5642 5633 5655 5649 5675 5689 5692 5705 5716 5730 5727 5720 5721 5716 5706 5696 5696 5689 5677 5668 5658 5649 5639 5629 5622 5616 5615 5606 5603 5597 5586 5577 5572 5567
5665 5668 5655 5650 5664 5653 5664 5661 5653 5648 5631 5624 5631 5617 5680 5683 5681 5700 5714 5725 5729 5722 5721 5712 5705 5703 5691 5681 5673 5662 5650 5641 5632 5625 5621 5612 5606 5601 5592 5582 5575 5567 5560 5556
5645 5653 5654 5653 5650 5649 5647 5642 5637 5627 5612 5612 5619 5629 5672 5666 5682 5695 5709 5718 5724 5716 5712 5706 5699 5687 5674 5666 5661 5652 5642 5636 5630 5621 5615 5608 5601 5592 5584 5576 5567 5560 5553 5548
5633 5639 5644 5646 5635 5629 5630 5617 5586 5584 5567 5618 5641 5621 5672 5673 5686 5695 5704 5713 5718 5707 5698 5686 5679 5670 5662 5653 5651 5644 5637 5628 5621 5617 5610 5604 5597 5590 5584 5578 5568 5555 5546 5539
5604 5628 5629 5638 5640 5633 5612 5613 5584 5573 5600 5633 5597 5619 5660 5678 5689 5695 5703 5713 5708 5693 5688 5682 5672 5663 5655 5649 5641 5637 5629 5622 5616 5610 5601 5594 5589 5586 5578 5573 5567 5557 5549 5539
5592 5612 5629 5625 5629 5632 5609 5594 5625 5586 5528 5566 5641 5652 5673 5677 5679 5681 5688 5686 5686 5681 5673 5671 5664 5659 5648 5641 5638 5635 5627 5620 5613 5607 5595 5588 5580 5576 5573 5564 5556 5548 5541 5531
5606 5590 5621 5610 5611 5611 5607 5612 5587 5569 5567 5558 5626 5623 5653 5659 5673 5680 5673 5673 5672 5670 5663 5654 5651 5649 5641 5634 5626 5619 5615 5610 5605 5599 5592 5586 5578 5568 5557 5549 5546 5534 5524 5519
5570 5580 5611 5588 5586 5593 5584 5584 5587 5584 5572 5587 5588 5628 5669 5654 5661 5660 5661 5661 5658 5656 5649 5645 5645 5640 5632 5622 5616 5609 5604 5599 5592 5586 5582 5575 5568 5561 5551 5540 5529 5523 5515 5505
5556 5541 5542 5573 5588 5592 5588 5582 5580 5569 5572 5557 5570 5590 5653 5640 5643 5631 5647 5651 5650 5650 5646 5637 5633 5623 5612 5615 5606 5602 5594 5590 5588 5578 5567 5562 5552 5545 5537 5528 5515 5508 5500 5490
5552 5515 5514 5532 5563 5567 5575 5576 5575 5571 5551 5548 5538 5565 5648 5634 5632 5629 5631 5625 5626 5640 5639 5627 5614 5611 5614 5606 5598 5596 5589 5584 5575 5567 5557 5547 5542 5533 5524 5515 5504 5493 5485 5470
5537 5508 5513 5530 5554 5572 5550 5556 5562 5567 5546 5561 5554 5577 5604 5632 5637 5644 5632 5635 5638 5628 5626 5618 5607 5603 5597 5595 5594 5588 5585 5576 5567 5560 5551 5543 5535 5527 5513 5504 5495 5482 5472 5456
5525 5506 5500 5516 5529 5540 5540 5543 5557 5546 5556 5542 5562 5560 5586 5616 5634 5627 5627 5634 5627 5616 5610 5609 5605 5601 5589 5589 5586 5581 5578 5570 5561 5556 5548 5540 5527 5517 5501 5492 5480 5466 5457 5445
5523 5509 5513 5506 5515 5516 5515 5536 5538 5542 5553 5549 5549 5552 5599 5610 5615 5613 5623 5631 5609 5600 5607 5607 5601 5596 5589 5586 5583 5575 5571 5564 5553 5547 5540 5529 5515 5502 5490 5481 5469 5457 5445 5430
5500 5494 5502 5507 5514 5510 5499 5527 5547 5541 5540 5544 5532 5561 5580 5582 5584 5596 5603 5604 5597 5603 5608 5607 5600 5589 5583 5578 5576 5569 5564 5553 5540 5535 5524 5514 5500 5486 5480 5471 5458 5447 5433 5420
5483 5476 5485 5500 5495 5499 5509 5524 5518 5525 5538 5548 5549 5552 5559 5561 5572 5575 5577 5575 5586 5593 5591 5583 5575 5572 5572 5569 5562 5562 5548 5540 5531 5522 5510 5500 5490 5479 5465 5453 5444 5430 5420 5410
5479 5480 5479 5483 5490 5501 5511 5517 5527 5523 5522 5529 5517 5525 5526 5527 5532 5538 5547 5533 5540 5548 5565 5571 5563 5561 5557 5556 5553 5542 5530 5522 5514 5507 5498 5487 5479 5467 5452 5441 5428 5418 5406 5396
5458 5469 5473 5481 5470 5476 5520 5513 5513 5512 5497 5437 5432 5436 5442 5468 5485 5490 5487 5487 5494 5509 5518 5526 5532 5532 5528 5531 5523 5518 5511 5505 5503 5495 5487 5472 5464 5453 5443 5432 5416 5404 5393 5378
5425 5435 5449 5468 5472 5473 5431 5439 5464 5472 5417 5407 5404 5401 5404 5416 5417 5425 5440 5461 5467 5477 5487 5489 5495 5496 5498 5495 5498 5497 5491 5491 5487 5478 5465 5450 5445 5436 5425 5414 5403 5391 5385 5367
5365 5370 5392 5419 5432 5439 5402 5408 5379 5364 5377 5372 5373 5375 5373 5378 5391 5403 5418 5427 5441 5452 5464 5466 5470 5474 5478 5473 5471 5471 5473 5465 5458 5451 5443 5433 5425 5416 5406 5396 5382 5374 5370 5354
5318 5328 5319 5321 5338 5359 5372 5378 5368 5345 5345 5352 5351 5358 5354 5366 5378 5389 5392 5397 5413 5427 5441 5445 5447 5450 5452 5447 5448 5450 5444 5438 5429 5423 5420 5415 5405 5396 5385 5381 5366 5357 5346 5342
5295 5314 5300 5295 5328 5331 5350 5351 5339 5336 5326 5318 5319 5324 5331 5334 5341 5349 5366 5377 5387 5403 5417 5422 5427 5433 5438 5430 5430 5431 5423 5417 5412 5401 5392 5385 5382 5373 5363 5355 5346 5344 5331 5326
5270 5283 5273 5284 5303 5312 5313 5320 5304 5291 5283 5282 5287 5292 5294 5290 5303 5315 5333 5341 5352 5380 5386 5398 5398 5407 5416 5416 5421 5414 5402 5397 5396 5391 5383 5370 5356 5352 5350 5345 5337 5332 5315 5316
5268 5268 5266 5268 5284 5267 5284 5276 5270 5259 5250 5247 5251 5254 5261 5261 5275 5289 5302 5304 5324 5342 5349 5362 5372 5380 5395 5393 5401 5399 5393 5376 5369 5370 5363 5350 5350 5349 5337 5324 5318 5320 5307 5301